Location: Vihti�l�
(61.3833°N, 23.0667°E)
Time: 05:36:27
(UTC+00:00)

CBERS 1 LM4 rocket - Pass Details

Date: 29 November 2020
Orbit: 701 x 842 km, 98.8° (Epoch: 22 January)

Event Time Altitude Azimuth Distance (km) Brightness Sun altitude
Rises 03:19:41 0° 19° (NNE) 3,109 7.9 -25.5°
Reaches altitude 10° 03:21:55 10° 20° (NNE) 2,191 7.1 -25.3°
Maximum altitude 03:26:44 87° 111° (ESE) 726 4.3 -24.7°
Enters shadow 03:28:14 45° 196° (SSW) 977 4.9 -24.5°
